Hourly Data Report for December 09, 2019

SATURNA ISLAND CS
BRITISH COLUMBIA
Current Station Operator: ECCC - MSC

48°47'02.067" N
123°02'41.082" W
24.40 m
1017101
71473
WEZ

Download Data

Hourly Data (December 2019)
Hourly Data Report for December 9, 2019
TIME
LST
Temp Definition
°C
Dew Point Definition
°C
Rel Hum Definition
%
Precip. Amount Definition
mm

Wind Dir Definition
10's deg

Wind Spd Definition
km/h
Visibility Definition
km
Stn Press Definition
kPa
Hmdx Definition


Wind Chill Definition


Weather Definition


00:00 6.9 6.1 94 0.0 0 1   102.17     LegendNANA
01:00 7.2 6.4 95 0.0 34 5   102.18     LegendNANA
02:00 6.8 4.9 87 0.0 8 18   102.15     LegendNANA
03:00 6.5 3.6 82 0.0 11 12   102.19     LegendNANA
04:00 6.2 4.3 87 0.0 11 4   102.20     LegendNANA
05:00 6.2 3.6 84 0.0 8 14   102.18     LegendNANA
06:00 6.3 3.6 83 0.0 9 16   102.18     LegendNANA
07:00 6.1 3.5 83 0.0 5 13   102.17     LegendNANA
08:00 5.9 3.1 83 0.0 8 15   102.19     LegendNANA
09:00 6.9 2.7 74 0.0 7 13   102.19     LegendNANA
10:00 7.6 3.0 73 0.0 8 8   102.22     LegendNANA
11:00 8.0 3.0 71 0.0 6 9   102.20     LegendNANA
12:00 8.8 2.4 64 0.0 5 9   102.15     LegendNANA
13:00 8.1 2.0 66 0.0 6 10   102.10     LegendNANA
14:00 6.1 2.7 79 0.0 5 4   102.03     LegendNANA
15:00 6.4 3.1 80 0.0 36 5   102.02     LegendNANA
16:00 5.7 3.2 84 0.2 1 6   101.97     LegendNANA
17:00 5.2 3.5 89 0.0 33 6   101.98     LegendNANA
18:00 5.2 3.7 90 0.0 2 5   101.95     LegendNANA
19:00 5.4 4.1 91 0.0 36 7   101.93     LegendNANA
20:00 5.4 4.1 91 0.0 30 3   101.95     LegendNANA
21:00 5.5 4.2 91 0.0 9 8   101.91     LegendNANA
22:00 6.1 3.5 83 0.0 10 14   101.90     LegendNANA
23:00 5.9 3.1 83 0.0 7 23   101.85     LegendNANA

Notes on Data Quality.

Legend

  • E = Estimated
  • M = Missing
  • NA = Not Available*
  • [empty] = Indicates an unobserved value
Date modified: